| time (UTC) | temp C | wind direction | speed KPH | gust KPH | rain 1hr cm | rain 24hr cm | rain mn cm | humidity % | barometer mb |
| 20260505064316 | 15 | 156 | 4.8 | 11.3 | 0.00 | 0.00 | 0.00 | 68 | 1008.2 |
| 20260505063344 | 14 | 177 | 3.2 | 6.4 | 0.00 | 0.00 | 0.00 | 70 | 1008.3 |
| 20260505062315 | 14 | 175 | 1.6 | 4.8 | 0.00 | 0.00 | 0.00 | 72 | 1008.3 |
| 20260505061317 | 14 | 191 | 0.0 | 1.6 | 0.00 | 0.00 | 0.00 | 71 | 1008.4 |
| 20260505060322 | 15 | 191 | 0.0 | 3.2 | 0.00 | 0.00 | 0.00 | 68 | 1008.4 |
| 20260505055318 | 16 | 191 | 0.0 | 3.2 | 0.00 | 0.00 | 0.00 | 65 | 1008.3 |
| 20260505054317 | 16 | 191 | 0.0 | 3.2 | 0.00 | 0.00 | 0.00 | 62 | 1008.4 |
| 20260505053317 | 17 | 191 | 3.2 | 12.9 | 0.00 | 0.00 | 0.00 | 60 | 1008.4 |
| 20260505052340 | 17 | 168 | 6.4 | 12.9 | 0.00 | 0.00 | 0.00 | 60 | 1008.4 |
| 20260505051341 | 17 | 161 | 8.0 | 12.9 | 0.00 | 0.00 | 0.00 | 60 | 1008.4 |
| 20260505050320 | 17 | 155 | 8.0 | 19.3 | 0.00 | 0.00 | 0.00 | 61 | 1008.4 |
| 20260505041341 | 18 | 158 | 9.7 | 19.3 | 0.00 | 0.00 | 0.00 | 59 | 1008.3 |
| 20260505040320 | 18 | 149 | 8.0 | 17.7 | 0.00 | 0.00 | 0.00 | 59 | 1008.3 |
| 20260505035331 | 18 | 176 | 9.7 | 17.7 | 0.00 | 0.00 | 0.00 | 59 | 1008.3 |
| 20260505034327 | 18 | 115 | 6.4 | 12.9 | 0.00 | 0.00 | 0.00 | 58 | 1008.2 |
| 20260505033401 | 18 | 154 | 6.4 | 17.7 | 0.00 | 0.00 | 0.00 | 57 | 1008.2 |
| 20260505032316 | 18 | 163 | 9.7 | 17.7 | 0.00 | 0.00 | 0.00 | 56 | 1008.3 |
| 20260505031338 | 18 | 150 | 8.0 | 17.7 | 0.00 | 0.00 | 0.00 | 56 | 1008.3 |
| 20260505030316 | 18 | 180 | 9.7 | 17.7 | 0.00 | 0.00 | 0.00 | 55 | 1008.4 |
| 20260505025317 | 18 | 179 | 11.3 | 20.9 | 0.00 | 0.00 | 0.00 | 55 | 1008.4 |
| 20260505024317 | 18 | 172 | 8.0 | 16.1 | 0.00 | 0.00 | 0.00 | 55 | 1008.4 |
| 20260505023339 | 18 | 143 | 6.4 | 12.9 | 0.00 | 0.00 | 0.00 | 55 | 1008.4 |
| 20260505022336 | 18 | 199 | 6.4 | 12.9 | 0.00 | 0.00 | 0.00 | 55 | 1008.3 |
| 20260505021339 | 18 | 171 | 6.4 | 12.9 | 0.00 | 0.00 | 0.00 | 55 | 1008.3 |
| 20260505020319 | 18 | 201 | 4.8 | 11.3 | 0.00 | 0.00 | 0.00 | 54 | 1008.3 |
| 20260505015319 | 19 | 150 | 4.8 | 11.3 | 0.00 | 0.00 | 0.00 | 53 | 1008.2 |
| 20260505014320 | 20 | 184 | 6.4 | 16.1 | 0.00 | 0.00 | 0.00 | 51 | 1008.1 |
| 20260505013339 | 20 | 163 | 6.4 | 16.1 | 0.00 | 0.00 | 0.00 | 49 | 1008.0 |
| 20260505012353 | 20 | 176 | 9.7 | 16.1 | 0.00 | 0.00 | 0.00 | 49 | 1007.7 |
| 20260505011337 | 20 | 218 | 9.7 | 16.1 | 0.00 | 0.00 | 0.00 | 48 | 1007.8 |
| 20260505010333 | 21 | 159 | 8.0 | 14.5 | 0.00 | 0.00 | 0.00 | 47 | 1007.7 |
| 20260505005337 | 21 | 165 | 9.7 | 16.1 | 0.00 | 0.00 | 0.00 | 46 | 1007.4 |
| 20260505004317 | 21 | 160 | 8.0 | 19.3 | 0.00 | 0.00 | 0.00 | 46 | 1007.2 |
| 20260505003354 | 21 | 161 | 8.0 | 16.1 | 0.00 | 0.00 | 0.00 | 46 | 1007.1 |
| 20260505002338 | 21 | 168 | 8.0 | 19.3 | 0.00 | 0.00 | 0.00 | 44 | 1007.1 |
| 20260505001330 | 21 | 177 | 6.4 | 19.3 | 0.00 | 0.00 | 0.00 | 44 | 1007.0 |
| 20260505000319 | 21 | 156 | 9.7 | 19.3 | 0.00 | 0.00 | 0.00 | 44 | 1006.9 |
| 20260504235320 | 21 | 177 | 11.3 | 22.5 | 0.00 | 0.00 | 0.00 | 43 | 1006.8 |
| 20260504234336 | 22 | 184 | 8.0 | 20.9 | 0.00 | 0.00 | 0.00 | 42 | 1006.9 |
| 20260504233333 | 22 | 134 | 11.3 | 17.7 | 0.00 | 0.00 | 0.00 | 40 | 1006.7 |
| 20260504232336 | 22 | 165 | 9.7 | 20.9 | 0.00 | 0.00 | 0.00 | 40 | 1006.7 |
| 20260504231357 | 23 | 207 | 11.3 | 20.9 | 0.00 | 0.00 | 0.00 | 40 | 1006.7 |
| 20260504230321 | 23 | 190 | 6.4 | 24.1 | 0.00 | 0.00 | 0.00 | 40 | 1006.8 |
| 20260504225334 | 23 | 103 | 11.3 | 22.5 | 0.00 | 0.00 | 0.00 | 39 | 1006.7 |
| 20260504224348 | 23 | 223 | 11.3 | 22.5 | 0.00 | 0.00 | 0.00 | 38 | 1006.8 |
| 20260504223314 | 23 | 160 | 11.3 | 20.9 | 0.00 | 0.00 | 0.00 | 39 | 1006.8 |
| 20260504222315 | 23 | 166 | 12.9 | 27.4 | 0.00 | 0.00 | 0.00 | 38 | 1006.8 |
| 20260504221335 | 23 | 200 | 8.0 | 25.7 | 0.00 | 0.00 | 0.00 | 39 | 1006.8 |
| 20260504220315 | 23 | 171 | 9.7 | 19.3 | 0.00 | 0.00 | 0.00 | 38 | 1006.8 |
| 20260504215322 | 24 | 142 | 8.0 | 24.1 | 0.00 | 0.00 | 0.00 | 38 | 1006.8 |
| 20260504214335 | 23 | 153 | 8.0 | 19.3 | 0.00 | 0.00 | 0.00 | 38 | 1006.8 |
| 20260504213325 | 23 | 167 | 9.7 | 22.5 | 0.00 | 0.00 | 0.00 | 37 | 1006.8 |
| 20260504212332 | 24 | 194 | 8.0 | 19.3 | 0.00 | 0.00 | 0.00 | 38 | 1006.8 |
| 20260504211336 | 24 | 154 | 6.4 | 27.4 | 0.00 | 0.00 | 0.00 | 38 | 1006.8 |
| 20260504210329 | 25 | 145 | 12.9 | 25.7 | 0.00 | 0.00 | 0.00 | 34 | 1006.9 |
| 20260504205354 | 25 | 192 | 9.7 | 17.7 | 0.00 | 0.00 | 0.00 | 33 | 1006.7 |
| 20260504204339 | 25 | 243 | 9.7 | 24.1 | 0.00 | 0.00 | 0.00 | 36 | 1006.8 |
| 20260504203353 | 24 | 194 | 14.5 | 25.7 | 0.00 | 0.00 | 0.00 | 36 | 1006.9 |
| 20260504202339 | 23 | 202 | 11.3 | 17.7 | 0.00 | 0.00 | 0.00 | 36 | 1007.1 |
| 20260504201315 | 25 | 205 | 6.4 | 20.9 | 0.00 | 0.00 | 0.00 | 36 | 1007.1 |
| 20260504200317 | 24 | 179 | 11.3 | 24.1 | 0.00 | 0.00 | 0.00 | 38 | 1007.4 |
| 20260504195339 | 24 | 178 | 8.0 | 19.3 | 0.00 | 0.00 | 0.00 | 36 | 1007.6 |
| 20260504194314 | 24 | 211 | 9.7 | 20.9 | 0.00 | 0.00 | 0.00 | 36 | 1007.6 |
| 20260504193318 | 24 | 218 | 8.0 | 19.3 | 0.00 | 0.00 | 0.00 | 37 | 1008.0 |
| 20260504192317 | 23 | 154 | 11.3 | 20.9 | 0.00 | 0.00 | 0.00 | 36 | 1008.2 |
| 20260504191340 | 24 | 186 | 8.0 | 25.7 | 0.00 | 0.00 | 0.00 | 36 | 1008.3 |
| 20260504190338 | 23 | 215 | 8.0 | 17.7 | 0.00 | 0.00 | 0.00 | 38 | 1008.3 |
| 20260504185331 | 24 | 252 | 8.0 | 17.7 | 0.00 | 0.00 | 0.00 | 37 | 1008.5 |
| 20260504184314 | 23 | 166 | 11.3 | 20.9 | 0.00 | 0.00 | 0.00 | 39 | 1008.7 |
| 20260504183314 | 23 | 186 | 6.4 | 22.5 | 0.00 | 0.00 | 0.00 | 38 | 1008.8 |
| 20260504182332 | 24 | 188 | 11.3 | 24.1 | 0.00 | 0.00 | 0.00 | 39 | 1009.1 |
| 20260504181336 | 23 | 209 | 9.7 | 22.5 | 0.00 | 0.00 | 0.00 | 36 | 1009.2 |
| 20260504180337 | 23 | 154 | 12.9 | 24.1 | 0.00 | 0.00 | 0.00 | 37 | 1009.4 |
| 20260504175333 | 23 | 130 | 12.9 | 27.4 | 0.00 | 0.00 | 0.00 | 38 | 1009.5 |
| 20260504174338 | 23 | 138 | 8.0 | 17.7 | 0.00 | 0.00 | 0.00 | 41 | 1009.5 |
| 20260504173349 | 23 | 194 | 8.0 | 22.5 | 0.00 | 0.00 | 0.00 | 39 | 1009.9 |
| 20260504172329 | 22 | 196 | 11.3 | 22.5 | 0.00 | 0.00 | 0.00 | 39 | 1010.0 |
| 20260504171315 | 22 | 153 | 8.0 | 16.1 | 0.00 | 0.00 | 0.00 | 38 | 1010.2 |
| 20260504170333 | 22 | 237 | 9.7 | 17.7 | 0.00 | 0.00 | 0.00 | 39 | 1010.2 |
| 20260504160338 | 21 | 242 | 6.4 | 12.9 | 0.00 | 0.00 | 0.00 | 39 | 1011.1 |
| 20260504150333 | 20 | 207 | 8.0 | 22.5 | 0.00 | 0.00 | 0.00 | 43 | 1011.7 |
| 20260504141316 | 18 | 155 | 11.3 | 22.5 | 0.00 | 0.00 | 0.00 | 41 | 1012.0 |
| 20260504140318 | 18 | 208 | 9.7 | 17.7 | 0.00 | 0.00 | 0.00 | 41 | 1011.9 |
| 20260504130336 | 15 | 169 | 8.0 | 22.5 | 0.00 | 0.00 | 0.00 | 42 | 1012.0 |
| 20260504120315 | 13 | 157 | 8.0 | 16.1 | 0.00 | 0.00 | 0.00 | 48 | 1012.3 |
| 20260504110316 | 9 | 198 | 4.8 | 12.9 | 0.00 | 0.00 | 0.00 | 60 | 1012.7 |
| 20260504100315 | 6 | 196 | 0.0 | 3.2 | 0.00 | 0.00 | 0.00 | 77 | 1012.6 |
| 20260504081334 | 6 | 5 | 0.0 | 0.0 | 0.00 | 0.00 | 0.00 | 76 | 1012.9 |
| 20260504080349 | 6 | 5 | 0.0 | 1.6 | 0.00 | 0.00 | 0.00 | 76 | 1012.9 |
| 20260504070321 | 6 | 296 | 0.0 | 3.2 | 0.00 | 0.00 | 0.00 | 72 | 1013.2 |